Weather in Volzhanets

Russia / Kursk Oblast     51°51′25″N   37°42′39″E
temp.,
°C
wind,
m/s
gust,
m/s
humid.,
%
clouds,
%
prec.,
mm/h
press.,
hPa
HPBL,
m
4 march, thu
thu400:00−2w513928 0.0 1018389
03:00−3w5119537 0.0 1016328
06:00−4wsw6139226 0.0 1015285
09:00−3wsw7148913 0.0 1012393
12:000sw814830 0.0 1010654
15:00+1wsw815914 0.0 1007603
18:00+1wsw6149230 0.0 1005511
21:00+1w7129865 0.1 1004656
5 march, fri
fri500:00+1w51298100 0.3 1004498
03:00+1wnw4998100 0.5 1005481
06:00−2wnw51092100 0.3 1006381
09:00−2nw479599 0.4 1009403
12:00−2n249072 0.0 1011374
15:00−1nnw238782 0.0 1012437
18:00−3nw1292100 0.0 101322
21:00−4nw119299 0.0 101521
6 march, sat
sat600:00−5n1193100 0.0 101621
03:00−6n1294100 0.0 101623
06:00−6n1294100 0.0 101623
09:00−6nw2395100 0.0 1016138
12:00−5wnw469090 0.1 1016428
15:00−5wnw698695 0.2 1016738
18:00−6wnw389194 0.0 1016287
21:00−7nw7139094 0.1 1019607
7 march, sun
sun700:00−9nw5108791 0.1 1020311
03:00−10w479145 0.1 1021169
06:00−9wsw511910 0.0 1019272
09:00−6sw7147937 0.0 1017700
12:00−3sw101669100 0.0 10131050
15:00−2wsw101971100 0.0 10101299
18:00−2wsw111889100 0.4 10071180
21:00−2wsw91884100 0.4 1007848
8 march, mon
mon800:00−3w6129586 0.6 1007685
03:00−2wsw8149293 1.3 1005802
06:00−2wsw9169399 0.3 1003856
09:00−3wnw71286100 0.9 1004940
12:00−5nw91375100 0.1 10081306
15:00−6wnw587352 0.1 1010775
18:00−8w34850 0.0 101285
21:00−10w22860 0.0 101421